Time,TemperatureF,DewpointF,PressureIn,WindDirection,WindDirectionDegrees,WindSpeedMPH,WindSpeedGustMPH,Humidity,HourlyPrecipIn,Conditions,Clouds,dailyrainin,SoftwareType,DateUTC
2013-07-16 00:06:00,66.5,64.0,30.44,SE,134,1.0,3.0,92,0.00,,,0.00,weatherlink.com 1.10,2013-07-16 04:06:00,
2013-07-16 00:21:00,66.8,64.0,30.44,SE,140,0.0,2.0,91,0.00,,,0.00,weatherlink.com 1.10,2013-07-16 04:21:00,
2013-07-16 00:36:00,67.1,64.0,30.45,SE,142,0.0,3.0,90,0.00,,,0.00,weatherlink.com 1.10,2013-07-16 04:36:00,
2013-07-16 00:51:00,67.0,64.0,30.44,SE,142,0.0,2.0,90,0.00,,,0.00,weatherlink.com 1.10,2013-07-16 04:51:00,
2013-07-16 01:06:00,67.0,64.0,30.45,SSE,154,1.0,3.0,90,0.00,,,0.00,weatherlink.com 1.10,2013-07-16 05:06:00,
2013-07-16 01:21:00,67.1,64.0,30.44,SSE,154,0.0,0.0,90,0.00,,,0.00,weatherlink.com 1.10,2013-07-16 05:21:00,
2013-07-16 01:36:00,66.5,64.0,30.44,SSE,154,0.0,0.0,90,0.00,,,0.00,weatherlink.com 1.10,2013-07-16 05:36:00,
2013-07-16 01:51:00,65.7,63.0,30.44,SSE,154,0.0,0.0,91,0.00,,,0.00,weatherlink.com 1.10,2013-07-16 05:51:00,
2013-07-16 02:06:00,65.1,63.0,30.44,SSE,154,0.0,0.0,92,0.00,,,0.00,weatherlink.com 1.10,2013-07-16 06:06:00,
2013-07-16 02:21:00,64.5,63.0,30.44,SSE,153,0.0,0.0,93,0.00,,,0.00,weatherlink.com 1.10,2013-07-16 06:21:00,
2013-07-16 02:36:00,63.9,62.0,30.44,SSE,153,0.0,0.0,93,0.00,,,0.00,weatherlink.com 1.10,2013-07-16 06:36:00,
2013-07-16 02:51:00,63.6,62.0,30.44,SSE,153,0.0,0.0,94,0.00,,,0.00,weatherlink.com 1.10,2013-07-16 06:51:00,
2013-07-16 03:06:00,63.0,62.0,30.44,SSE,153,0.0,0.0,95,0.00,,,0.00,weatherlink.com 1.10,2013-07-16 07:06:00,
2013-07-16 03:21:00,62.7,61.0,30.44,SSE,153,0.0,0.0,95,0.00,,,0.00,weatherlink.com 1.10,2013-07-16 07:21:00,
2013-07-16 03:37:00,62.3,61.0,30.44,SSE,153,0.0,0.0,95,0.00,,,0.00,weatherlink.com 1.10,2013-07-16 07:37:00,
2013-07-16 03:52:00,62.0,61.0,30.44,SSE,153,0.0,0.0,95,0.00,,,0.00,weatherlink.com 1.10,2013-07-16 07:52:00,
2013-07-16 04:07:00,61.6,61.0,30.44,SSE,153,0.0,0.0,96,0.00,,,0.00,weatherlink.com 1.10,2013-07-16 08:07:00,
2013-07-16 04:22:00,61.6,61.0,30.44,SSE,153,0.0,0.0,96,0.00,,,0.00,weatherlink.com 1.10,2013-07-16 08:22:00,
2013-07-16 04:37:00,61.7,61.0,30.44,SSE,153,0.0,0.0,96,0.00,,,0.00,weatherlink.com 1.10,2013-07-16 08:37:00,
2013-07-16 04:52:00,61.6,61.0,30.44,SSE,153,0.0,0.0,96,0.00,,,0.00,weatherlink.com 1.10,2013-07-16 08:52:00,
2013-07-16 05:07:00,61.5,60.0,30.44,SSE,153,0.0,0.0,96,0.00,,,0.00,weatherlink.com 1.10,2013-07-16 09:07:00,
2013-07-16 05:22:00,61.4,61.0,30.44,SSE,153,0.0,0.0,97,0.00,,,0.00,weatherlink.com 1.10,2013-07-16 09:22:00,
2013-07-16 05:37:00,61.3,61.0,30.45,SSE,153,0.0,0.0,97,0.00,,,0.00,weatherlink.com 1.10,2013-07-16 09:37:00,
2013-07-16 05:52:00,61.3,61.0,30.45,SSE,153,0.0,0.0,97,0.00,,,0.00,weatherlink.com 1.10,2013-07-16 09:52:00,
2013-07-16 06:07:00,61.3,61.0,30.45,SSE,153,0.0,0.0,97,0.00,,,0.00,weatherlink.com 1.10,2013-07-16 10:07:00,
2013-07-16 06:22:00,61.1,60.0,30.46,SSE,153,0.0,0.0,97,0.00,,,0.00,weatherlink.com 1.10,2013-07-16 10:22:00,
2013-07-16 06:37:00,61.2,60.0,30.46,SSE,157,0.0,1.0,97,0.01,,,0.01,weatherlink.com 1.10,2013-07-16 10:37:00,
2013-07-16 06:52:00,61.3,61.0,30.46,SSE,157,0.0,0.0,97,0.01,,,0.01,weatherlink.com 1.10,2013-07-16 10:52:00,
2013-07-16 07:07:00,61.7,61.0,30.46,SSE,157,0.0,0.0,97,0.01,,,0.01,weatherlink.com 1.10,2013-07-16 11:07:00,
2013-07-16 07:22:00,62.1,62.0,30.46,SSE,157,0.0,0.0,98,0.01,,,0.01,weatherlink.com 1.10,2013-07-16 11:22:00,
2013-07-16 07:37:00,62.7,62.0,30.46,SSE,157,0.0,0.0,97,0.00,,,0.01,weatherlink.com 1.10,2013-07-16 11:37:00,
2013-07-16 07:52:00,63.1,63.0,30.47,SSE,157,0.0,0.0,98,0.00,,,0.01,weatherlink.com 1.10,2013-07-16 11:52:00,
2013-07-16 08:07:00,64.1,64.0,30.47,SSE,157,0.0,0.0,98,0.00,,,0.01,weatherlink.com 1.10,2013-07-16 12:07:00,
2013-07-16 08:22:00,65.2,65.0,30.47,SSE,157,0.0,0.0,98,0.00,,,0.01,weatherlink.com 1.10,2013-07-16 12:22:00,
2013-07-16 08:37:00,66.2,66.0,30.48,SSE,157,0.0,0.0,98,0.00,,,0.01,weatherlink.com 1.10,2013-07-16 12:37:00,
2013-07-16 08:52:00,68.3,66.0,30.48,North,11,0.0,2.0,92,0.00,,,0.01,weatherlink.com 1.10,2013-07-16 12:52:00,
2013-07-16 09:07:00,71.7,66.0,30.48,WNW,294,0.0,3.0,83,0.00,,,0.01,weatherlink.com 1.10,2013-07-16 13:07:00,
2013-07-16 09:22:00,73.5,67.0,30.48,North,5,0.0,2.0,79,0.00,,,0.01,weatherlink.com 1.10,2013-07-16 13:22:00,
2013-07-16 09:37:00,75.1,68.0,30.48,WNW,282,0.0,1.0,78,0.00,,,0.01,weatherlink.com 1.10,2013-07-16 13:37:00,
2013-07-16 09:52:00,76.6,68.0,30.48,West,273,0.0,2.0,75,0.00,,,0.01,weatherlink.com 1.10,2013-07-16 13:52:00,
2013-07-16 10:07:00,77.0,69.0,30.48,NNW,348,0.0,4.0,75,0.00,,,0.01,weatherlink.com 1.10,2013-07-16 14:07:00,
2013-07-16 10:22:00,78.0,68.0,30.47,NNW,332,0.0,6.0,72,0.00,,,0.01,weatherlink.com 1.10,2013-07-16 14:22:00,
2013-07-16 10:37:00,78.7,68.0,30.47,NNE,16,1.0,8.0,69,0.00,,,0.01,weatherlink.com 1.10,2013-07-16 14:37:00,
2013-07-16 10:52:00,79.3,68.0,30.47,NW,304,0.0,3.0,69,0.00,,,0.01,weatherlink.com 1.10,2013-07-16 14:52:00,
2013-07-16 11:08:00,80.1,67.0,30.47,NNE,18,0.0,6.0,65,0.00,,,0.01,weatherlink.com 1.10,2013-07-16 15:08:00,
2013-07-16 11:23:00,79.1,67.0,30.47,NNW,336,3.0,8.0,67,0.00,,,0.01,weatherlink.com 1.10,2013-07-16 15:23:00,
2013-07-16 11:38:00,80.3,67.0,30.47,North,349,1.0,7.0,65,0.00,,,0.01,weatherlink.com 1.10,2013-07-16 15:38:00,
2013-07-16 11:53:00,80.9,67.0,30.47,North,350,3.0,8.0,62,0.00,,,0.01,weatherlink.com 1.10,2013-07-16 15:53:00,
2013-07-16 12:08:00,80.6,67.0,30.46,NNW,341,3.0,9.0,64,0.00,,,0.01,weatherlink.com 1.10,2013-07-16 16:08:00,
2013-07-16 12:23:00,81.6,66.0,30.46,NNW,344,0.0,9.0,59,0.00,,,0.01,weatherlink.com 1.10,2013-07-16 16:23:00,
2013-07-16 12:38:00,81.6,66.0,30.45,NNW,332,4.0,7.0,59,0.00,,,0.01,weatherlink.com 1.10,2013-07-16 16:38:00,
2013-07-16 12:53:00,81.6,65.0,30.46,NNW,344,6.0,6.0,58,0.00,,,0.01,weatherlink.com 1.10,2013-07-16 16:53:00,
2013-07-16 13:08:00,81.1,66.0,30.45,West,265,2.0,7.0,61,0.00,,,0.01,weatherlink.com 1.10,2013-07-16 17:08:00,
2013-07-16 13:23:00,81.7,65.0,30.45,North,360,2.0,7.0,57,0.00,,,0.01,weatherlink.com 1.10,2013-07-16 17:23:00,
2013-07-16 13:38:00,82.4,66.0,30.44,NNW,346,0.0,4.0,57,0.00,,,0.01,weatherlink.com 1.10,2013-07-16 17:38:00,
2013-07-16 13:53:00,82.2,67.0,30.44,North,351,7.0,9.0,61,0.00,,,0.01,weatherlink.com 1.10,2013-07-16 17:53:00,
2013-07-16 14:08:00,81.8,67.0,30.43,SW,225,0.0,5.0,62,0.00,,,0.01,weatherlink.com 1.10,2013-07-16 18:08:00,
2013-07-16 14:23:00,82.4,66.0,30.43,ENE,70,0.0,7.0,58,0.00,,,0.01,weatherlink.com 1.10,2013-07-16 18:23:00,
2013-07-16 14:38:00,82.3,65.0,30.42,East,81,0.0,10.0,57,0.00,,,0.01,weatherlink.com 1.10,2013-07-16 18:38:00,
2013-07-16 14:53:00,83.2,65.0,30.42,WSW,258,3.0,7.0,54,0.00,,,0.01,weatherlink.com 1.10,2013-07-16 18:53:00,
2013-07-16 15:08:00,84.3,66.0,30.41,NNW,333,3.0,6.0,54,0.00,,,0.01,weatherlink.com 1.10,2013-07-16 19:08:00,
2013-07-16 15:23:00,83.7,64.0,30.41,North,11,1.0,9.0,52,0.00,,,0.01,weatherlink.com 1.10,2013-07-16 19:23:00,
2013-07-16 15:53:00,84.0,66.0,30.41,West,273,3.0,9.0,54,0.00,,,0.01,weatherlink.com 1.10,2013-07-16 19:53:00,
2013-07-16 16:08:00,83.0,65.0,30.41,NNW,348,3.0,6.0,55,0.00,,,0.01,weatherlink.com 1.10,2013-07-16 20:08:00,
2013-07-16 16:23:00,83.5,63.0,30.41,North,355,3.0,8.0,51,0.00,,,0.01,weatherlink.com 1.10,2013-07-16 20:23:00,
2013-07-16 16:38:00,83.7,65.0,30.40,NNW,340,3.0,3.0,54,0.00,,,0.01,weatherlink.com 1.10,2013-07-16 20:38:00,
2013-07-16 16:53:00,84.0,66.0,30.39,NNW,341,0.0,3.0,55,0.00,,,0.01,weatherlink.com 1.10,2013-07-16 20:53:00,
2013-07-16 17:08:00,83.9,64.0,30.39,NNW,348,2.0,4.0,52,0.00,,,0.01,weatherlink.com 1.10,2013-07-16 21:08:00,
2013-07-16 17:23:00,83.9,64.0,30.40,North,355,0.0,5.0,52,0.00,,,0.01,weatherlink.com 1.10,2013-07-16 21:23:00,
2013-07-16 17:38:00,84.2,64.0,30.40,NNW,329,2.0,4.0,51,0.00,,,0.01,weatherlink.com 1.10,2013-07-16 21:38:00,
2013-07-16 17:53:00,84.0,66.0,30.40,West,276,0.0,4.0,55,0.00,,,0.01,weatherlink.com 1.10,2013-07-16 21:53:00,
2013-07-16 18:08:00,83.3,65.0,30.39,NE,50,0.0,4.0,55,0.00,,,0.01,weatherlink.com 1.10,2013-07-16 22:08:00,
2013-07-16 18:23:00,83.6,67.0,30.39,WSW,248,1.0,4.0,57,0.00,,,0.01,weatherlink.com 1.10,2013-07-16 22:23:00,
2013-07-16 18:38:00,81.8,66.0,30.40,NNW,346,0.0,3.0,60,0.00,,,0.01,weatherlink.com 1.10,2013-07-16 22:38:00,
2013-07-16 18:53:00,80.8,67.0,30.41,NNW,336,0.0,2.0,64,0.00,,,0.01,weatherlink.com 1.10,2013-07-16 22:53:00,
2013-07-16 19:08:00,78.7,67.0,30.41,WSW,257,0.0,3.0,68,0.00,,,0.01,weatherlink.com 1.10,2013-07-16 23:08:00,
2013-07-16 19:23:00,77.5,67.0,30.41,West,272,1.0,1.0,71,0.00,,,0.01,weatherlink.com 1.10,2013-07-16 23:23:00,
2013-07-16 19:38:00,77.2,67.0,30.41,NW,306,0.0,2.0,71,0.00,,,0.01,weatherlink.com 1.10,2013-07-16 23:38:00,
2013-07-16 19:53:00,76.0,67.0,30.41,West,267,0.0,0.0,74,0.00,,,0.01,weatherlink.com 1.10,2013-07-16 23:53:00,
2013-07-16 20:08:00,75.4,68.0,30.43,West,267,0.0,0.0,78,0.00,,,0.01,weatherlink.com 1.10,2013-07-17 00:08:00,
2013-07-16 20:23:00,74.7,67.0,30.41,West,267,0.0,0.0,78,0.00,,,0.01,weatherlink.com 1.10,2013-07-17 00:23:00,
2013-07-16 20:38:00,74.6,68.0,30.42,West,267,0.0,0.0,80,0.00,,,0.01,weatherlink.com 1.10,2013-07-17 00:38:00,
2013-07-16 20:53:00,73.8,68.0,30.42,West,267,0.0,0.0,81,0.00,,,0.01,weatherlink.com 1.10,2013-07-17 00:53:00,
2013-07-16 21:08:00,72.6,67.0,30.42,West,267,0.0,0.0,83,0.00,,,0.01,weatherlink.com 1.10,2013-07-17 01:08:00,
2013-07-16 21:23:00,71.3,67.0,30.42,West,267,0.0,0.0,86,0.00,,,0.01,weatherlink.com 1.10,2013-07-17 01:23:00,
2013-07-16 21:38:00,70.6,67.0,30.41,West,267,0.0,0.0,87,0.00,,,0.01,weatherlink.com 1.10,2013-07-17 01:38:00,
2013-07-16 21:54:00,70.1,67.0,30.41,West,267,0.0,0.0,89,0.00,,,0.01,weatherlink.com 1.10,2013-07-17 01:54:00,
2013-07-16 22:08:00,69.4,66.0,30.42,West,267,0.0,0.0,90,0.00,,,0.01,weatherlink.com 1.10,2013-07-17 02:08:00,
2013-07-16 22:23:00,68.9,66.0,30.42,West,267,0.0,0.0,91,0.00,,,0.01,weatherlink.com 1.10,2013-07-17 02:23:00,
2013-07-16 22:38:00,68.4,66.0,30.42,West,267,0.0,0.0,92,0.00,,,0.01,weatherlink.com 1.10,2013-07-17 02:38:00,
2013-07-16 22:53:00,67.9,66.0,30.41,West,267,0.0,0.0,93,0.00,,,0.01,weatherlink.com 1.10,2013-07-17 02:53:00,
2013-07-16 23:08:00,67.5,66.0,30.42,West,267,0.0,0.0,93,0.00,,,0.01,weatherlink.com 1.10,2013-07-17 03:08:00,
2013-07-16 23:23:00,67.2,66.0,30.43,West,267,0.0,0.0,94,0.00,,,0.01,weatherlink.com 1.10,2013-07-17 03:23:00,
2013-07-16 23:38:00,67.1,65.0,30.43,West,267,0.0,0.0,94,0.00,,,0.01,weatherlink.com 1.10,2013-07-17 03:38:00,
2013-07-16 23:53:00,67.0,66.0,30.43,West,267,0.0,0.0,95,0.00,,,0.01,weatherlink.com 1.10,2013-07-17 03:53:00,